Location: Zagreb
(45.8000°N, 16.0000°E)
Time: 19:32:15
(UTC+02:00)

Courier 1B - All Passes

Search period start: 09 August 2020 00:00
Search period end: 19 August 2020 00:00
Orbit: 962 x 1209 km, 28.3° (Epoch: 09 August)

Date Brightness Start Highest point End Pass type
(mag) Time Alt. Az. Time Alt. Az. Time Alt. Az.
09 Aug - 00:44:01 10° SSW 00:44:16 10° SSW 00:44:32 10° SSW night (unlit)
09 Aug - 20:01:47 10° SSW 20:05:15 14° SSE 20:08:37 10° SE daylight
09 Aug - 21:53:49 10° SW 21:58:07 17° S 22:02:17 10° SE visible
09 Aug - 23:48:15 10° SW 23:50:52 12° SSW 23:53:27 10° S visible
10 Aug - 19:08:59 10° S 19:11:45 12° SSE 19:14:28 10° SE daylight
10 Aug - 21:00:11 10° SW 21:04:37 18° S 21:08:55 10° SE visible
10 Aug - 22:53:54 10° SW 22:57:26 15° SSW 23:00:54 10° SSE visible
11 Aug - 18:17:05 10° SSE 18:18:14 10° SSE 18:19:23 10° SSE daylight
11 Aug - 20:06:39 10° SSW 20:11:06 17° S 20:15:24 10° SE daylight
11 Aug - 21:59:51 10° SW 22:03:58 17° S 22:08:00 10° SSE visible
12 Aug - 19:13:16 10° SSW 19:17:33 16° S 19:21:44 10° SE daylight
12 Aug - 21:05:56 10° SW 21:10:29 18° S 21:14:53 10° SE visible
12 Aug - 23:01:13 10° SW 23:03:14 11° SSW 23:05:14 10° S visible
13 Aug - 18:20:05 10° SSW 18:24:01 15° SSE 18:27:51 10° SE daylight
13 Aug - 20:12:09 10° SW 20:16:58 19° S 20:21:36 10° SE daylight
13 Aug - 22:06:25 10° SW 22:09:48 14° SSW 22:13:06 10° SSE visible
14 Aug - 17:27:15 10° S 17:30:28 13° SSE 17:33:37 10° SE daylight
14 Aug - 19:18:28 10° SW 19:23:24 19° S 19:28:10 10° SE daylight
14 Aug - 21:12:08 10° SW 21:16:19 16° SSW 21:20:23 10° SSE visible
15 Aug - 16:35:12 10° S 16:36:54 11° SSE 16:38:37 10° SE daylight
15 Aug - 18:24:56 10° SSW 18:29:49 18° S 18:34:34 10° SE daylight
15 Aug - 20:18:04 10° SW 20:22:48 18° S 20:27:22 10° SSE daylight
15 Aug - 22:14:53 10° SSW 22:15:33 10° SSW 22:16:13 10° SSW visible
16 Aug - 17:31:34 10° SSW 17:36:14 17° SSE 17:40:48 10° SE daylight
16 Aug - 19:24:10 10° SW 19:29:15 19° S 19:34:09 10° SE daylight
16 Aug - 21:19:00 10° SW 21:22:06 13° SSW 21:25:06 10° S visible
17 Aug - 16:38:27 10° SSW 16:42:38 15° SSE 16:46:47 10° SE daylight
17 Aug - 18:30:24 10° SW 18:35:39 20° S 18:40:45 10° SE daylight
17 Aug - 20:24:28 10° SW 20:28:36 16° SSW 20:32:36 10° SSE visible
18 Aug - 15:45:42 10° S 15:49:04 13° SSE 15:52:24 10° SE daylight
18 Aug - 17:36:46 10° SW 17:42:02 20° S 17:47:12 10° SE daylight
18 Aug - 19:30:16 10° SW 19:35:03 18° S 19:39:42 10° SSE daylight
